XML Sitemap

This is a XML Sitemap which is supposed to be processed by search engines which follow the XML Sitemap standard like Ask.com, Bing, Google and Yahoo.
It was generated using the WordPress content management system and the Google Sitemap Generator Plugin by Arne Brachhold.
You can find more information about XML sitemaps on sitemaps.org and Google's list of sitemap programs.

URLPriorityChange frequencyLast modified (GMT)
http://socius101.com/leak-of-montblanc-summit-2-plus-post-50761/20%Monthly2019-11-30 15:37
http://socius101.com/leak-of-oppo-reno3-announce-50758-2/20%Monthly2019-11-30 14:58
http://socius101.com/matome-of-galaxy-s11-plus-image-50753-2/20%Monthly2019-11-30 10:39
http://socius101.com/info-of-ps5-cd-project-red-post-50743/20%Monthly2019-11-30 07:32
http://socius101.com/annnounce-of-smartwatch-honor-magicwatch-2-50746-2/20%Monthly2019-11-29 03:52
http://socius101.com/matome-of-china-tablet-post-37995/20%Monthly2020-02-26 08:56
http://socius101.com/info-of-asus-zenfone-5z-android-10-post-50735/20%Monthly2019-11-28 23:55
http://socius101.com/leak-of-galaxy-s11-plus-image-50731-2/20%Monthly2019-11-28 13:35
http://socius101.com/leak-of-oppo-reno3-pro-50722-2/20%Monthly2019-11-30 01:53
http://socius101.com/review-of-smartwatch-amazfit-gtr-50714-2/20%Monthly2019-11-28 10:59
http://socius101.com/leak-of-motorola-one-hyper-press-event-50711-2/20%Monthly2019-11-28 08:36
http://socius101.com/matome-of-moto-e6-play-post-50707/20%Monthly2019-11-27 08:49
http://socius101.com/info-of-xperia-5-sony-open-device-50705-2/20%Monthly2019-11-25 17:25
http://socius101.com/announce-of-huawei-matepad-pro50699-2/20%Monthly2020-02-24 18:08
http://socius101.com/leak-of-galaxy-s11e-50696-2/20%Monthly2019-11-24 20:25
http://socius101.com/leak-of-playstation-5-biohazard-3re-50693-2/20%Monthly2019-11-24 10:59
http://socius101.com/leak-of-playstation-5-controller-design-50686-2/20%Monthly2019-11-24 10:26
http://socius101.com/leak-of-playstation-5-price-release-50683-2/20%Monthly2019-11-24 02:08
http://socius101.com/leak-of-matepad-press-50680-2/20%Monthly2019-11-24 01:41
http://socius101.com/annouce-of-gadget-oral-b-50390-2/20%Monthly2019-11-23 03:13
http://socius101.com/announce-of-samsung-w20-50665-2/20%Monthly2019-11-23 01:46
http://socius101.com/leak-of-xperia-5-1-2020-50662-2/20%Monthly2019-11-23 23:26
http://socius101.com/announce-of-zte-blade-10-prime-50659-2/20%Monthly2019-11-23 03:42
http://socius101.com/leak-of-galaxy-s11-25w-fast-charging-50655-2/20%Monthly2019-11-22 12:04
http://socius101.com/announce-of-huawei-watch-gt-2-50652-2/20%Monthly2019-11-22 11:38
http://socius101.com/leak-of-xperia-zuckbuks-xperia-1-1-50648-2/20%Monthly2019-11-23 15:55
http://socius101.com/announce-of-oppo-reno-10x-se-50641-2/20%Monthly2019-11-21 09:15
http://socius101.com/announce-of-rog-phone-2-50638-2/20%Monthly2019-11-21 08:51
http://socius101.com/announce-of-aquos-sense3-case-50634-2/20%Monthly2019-11-21 08:28
http://socius101.com/info-of-motorola-razr-preprder-2019/20%Monthly2019-11-21 08:06
http://socius101.com/announce-of-aquos-sense3-50628-2/20%Monthly2019-11-19 04:28
http://socius101.com/leak-of-oppo-reno-s-65w-super-vooc-2-0-50624-2/20%Monthly2019-11-18 13:51
http://socius101.com/leak-of-xperia-3-battery-50621-2/20%Monthly2019-11-18 13:16
http://socius101.com/info-of-xperia-android-10-50618-2/20%Monthly2019-11-18 08:08
http://socius101.com/health-for-depression-post-50615/20%Monthly2019-11-18 07:18
http://socius101.com/leak-of-xperia-3-zackbuks-50609-2/20%Monthly2019-11-16 06:46
http://socius101.com/announce-of-garmin-instinct-tide-50606-2/20%Monthly2019-11-16 06:33
http://socius101.com/leak-of-xperia-5-android-10-post-50601/20%Monthly2019-11-15 11:06
http://socius101.com/matome-of-xperia-xz2-compact-fuguai-trouble-post-42723/20%Monthly2019-11-15 10:57
http://socius101.com/leak-of-xperia-3-zackbuks-50597-2/20%Monthly2019-11-15 06:34
http://socius101.com/announce-of-galaxy-watch-active2-in-japan/20%Monthly2019-11-15 06:22
http://socius101.com/leak-of-motorola-android-10-update-50585-2/20%Monthly2019-11-14 20:58
http://socius101.com/matome-of-galaxy-watch-active-2-post-48705/20%Monthly2019-11-15 06:23
http://socius101.com/leak-of-xperia-3-in2020-50575-2/20%Monthly2019-11-14 18:16
http://socius101.com/announe-of-motorola-razr-50573-2/20%Monthly2019-11-14 18:04
http://socius101.com/matome-of-motorora-razr-50406-2/20%Monthly2019-11-14 17:51
http://socius101.com/announe-of-galaxy-book-flex-qled/20%Monthly2019-11-14 06:34
http://socius101.com/announce-of-fossil-hybrid-hr-50564-2/20%Monthly2020-01-12 04:02
http://socius101.com/leak-of-galaxy-s11-battery-50562-2/20%Monthly2019-11-13 18:14
http://socius101.com/trouble-for-xperia-xz3-display-orange-line-50556-2/20%Monthly2019-11-12 08:32
http://socius101.com/comparison-graphic-ps4-death-stranding-post-50553/20%Monthly2019-11-11 23:52
http://socius101.com/diet-of-frozen-vegetables-point-50549-2/20%Monthly2019-11-11 22:35
http://socius101.com/leak-of-motorola-one-hyper-fcc-certification-50546-2/20%Monthly2019-11-11 22:12
http://socius101.com/leak-of-playstation-5-release-date-50533-2/20%Monthly2019-11-11 10:07
http://socius101.com/leak-of-samsung-w2020-press-conference-50538-2/20%Monthly2019-11-11 09:57
http://socius101.com/news-of-playstation-sie-top-50535-2/20%Monthly2019-11-11 09:30
http://socius101.com/leak-of-huawei-matepad-pro-40wcharge-50531/20%Monthly2019-11-10 19:46
http://socius101.com/leak-of-playstation-5-devkit-post-50523/20%Monthly2019-11-10 19:12
http://socius101.com/matome-of-moto-one-hyper-50524-2/20%Monthly2019-11-10 12:25
http://socius101.com/leak-of-oppo-reno3-50520-2/20%Monthly2019-11-10 12:08
http://socius101.com/leak-of-motorola-razr-spec-50516-2/20%Monthly2019-11-10 01:37
http://socius101.com/leak-of-samsung-w2020-design-50508-2/20%Monthly2019-11-10 00:47
http://socius101.com/leak-of-snapdragon-865-announce-50504-2/20%Monthly2019-11-09 22:39
http://socius101.com/leak-of-moto-g8-50494-2/20%Monthly2019-11-09 00:22
http://socius101.com/innfo-of-xperia-mobile-game-experience-2019-50490-2/20%Monthly2019-11-09 00:02
http://socius101.com/annpunce-of-xperia-sony-imx-686-50487-2/20%Monthly2019-11-08 23:18
http://socius101.com/info-of-motorola-android-10-for-one-power-50484-2/20%Monthly2019-11-07 14:54
http://socius101.com/leak-of-motorola-razr-really-50479-2/20%Monthly2019-11-07 13:04
http://socius101.com/torouble-of-pixel-4-90hz-50477-2/20%Monthly2019-11-07 12:35
http://socius101.com/leak-of-fossil-hybrid-50471-2/20%Monthly2019-11-07 11:22
http://socius101.com/leak-of-galaxy-s11-camera-108mp-50469-2/20%Monthly2019-11-07 11:03
http://socius101.com/announce-of-xiaomi-mi-cc9-pro-50466-2/20%Monthly2019-11-07 09:43
http://socius101.com/info-of-xperia-5-update-newly-50464-2/20%Monthly2019-11-07 09:11
http://socius101.com/matome-of-motorola-g8-play-50460-2/20%Monthly2019-11-07 03:24
http://socius101.com/annnounce-of-xiaomi-mi-cc9-pro-mi-cc9-pro/20%Monthly2019-11-07 09:44
http://socius101.com/leak-of-mediapad-pro-design-post-50446/20%Monthly2019-11-06 04:19
http://socius101.com/matome-galaxy-note-10-pro-leak-spec/20%Monthly2019-11-06 04:56
http://socius101.com/leak-of-motorola-razr-2019-design-50440-2/20%Monthly2019-11-05 10:15
http://socius101.com/leak-of-ps4-ghost-of-tsushima-50436-2/20%Monthly2019-11-05 09:23
http://socius101.com/leak-of-huawei-band-4-pro-50433-2/20%Monthly2019-11-04 11:13
http://socius101.com/leak-of-motorola-one-hyper-nbtc-certification-50430-2/20%Monthly2019-11-04 06:36
http://socius101.com/health-for-coffee-50426-2/20%Monthly2019-11-04 06:09
http://socius101.com/comparison-surface-laptop-3-for-surface-laptop-2/20%Monthly2019-11-04 05:59
http://socius101.com/comparison-ipad-10-2inch-for-9-7inch-post-50409/20%Monthly2019-11-03 21:27
http://socius101.com/leak-of-huawei-mediapad-post-50403/20%Monthly2019-11-03 18:58
http://socius101.com/comparison-vivosmart-for-vivosmart-hr-j-50398-2/20%Monthly2019-11-03 20:39
http://socius101.com/leak-of-macbook-pro-16-inch-production-post-50395/20%Monthly2019-11-03 18:18
http://socius101.com/leak-of-xiaomi-50392-2/20%Monthly2019-11-03 12:52
http://socius101.com/leak-of-motorola-razr-design-50384-2/20%Monthly2019-11-03 08:56
http://socius101.com/leak-of-galaxy-s11-periscope-camera-zoom-50380-2/20%Monthly2019-11-02 11:50
http://socius101.com/matome-of-moto-g8-plus-post-50368/20%Monthly2019-11-02 06:04
http://socius101.com/announce-of-ps4-diablo4-50372-2/20%Monthly2019-11-02 04:45
http://socius101.com/announce-of-google-smartwatch-fitbit-50346-2/20%Monthly2019-11-01 19:53
http://socius101.com/leak-pf-xperia-6cameras-in-2020-by-fake-leker-post-50334/20%Monthly2019-11-01 20:18
http://socius101.com/comparison-galaxy-note-10-plus-for-note-10-48646-2/20%Monthly2019-11-06 04:47